Regional Weather Roundup
Issued by NWS

Home | Current Version | Previous Version | Text Only | Print | Product List | Glossary On
Versions: 1 2 3 4 5 6 7 8 9 10 11 12 13 14 15 16 17 18 19 20 21 22 23 24 25 26 27 28 29 30 31 32 33 34 35 36 37 38 39 40 41 42 43 44 45 46 47 48 49 50
000
ASUS46 KSEW 012110
RWRWA

WASHINGTON REGIONAL WEATHER ROUNDUP
NATIONAL WEATHER SERVICE SEATTLE WA
200 PM PDT TUE SEP 01 2015

NOTE:"FAIR" INDICATES FEW OR NO CLOUDS BELOW 12,000 FEET WITH NO
SIGNIFICANT WEATHER AND/OR OBSTRUCTIONS TO VISIBILITY.

WAZ505-507>509-012200-
SEATTLE, TACOMA, EVERETT, AND VICINITY

CITY           SKY/WX    TMP DP  RH WIND       PRES   REMARKS
EVERETT        CLOUDY    62  56  80 S12G23    29.83S
BOEING FIELD   RAIN      63  55  77 S6        29.83F
RENTON         CLOUDY    68  57  68 S14       29.82F
SEATAC AIRPORT CLOUDY    65  57  75 SW20G25   29.84F
JBLM-MCCHORD   LGT RAIN  64  59  82 SW14G22   29.84F
PUYALLUP       CLOUDY    66  61  82 VRB3      29.84F
BREMERTON      CLOUDY    63  61  94 S10       29.85F
JBLM-FT LEWIS  LGT RAIN  62  61  96 S8        29.84S FOG
TACOMA NARROWS RAIN      59  57  93 SW8       29.85S FOG
$$

WAZ001-503-506-510-514-515-012200-
NORTH INTERIOR

CITY           SKY/WX    TMP DP  RH WIND       PRES   REMARKS
BELLINGHAM     CLOUDY    61  55  81 SE5       29.81F
FRIDAY HARBOR  CLOUDY    62  55  77 SE5       29.81F
EASTSOUND      CLOUDY    63  54  72 S5        29.79F
PORT ANGELES   CLOUDY    62  53  72 E5        29.81F
PORT TOWNSEND  PTSUNNY   61  57  88 CALM      29.81S
NAS WHIDBEY    CLOUDY    60  57  89 E5        29.86S
ARLINGTON      CLOUDY    63  55  77 SE13      29.82S
BURLINGTON     PTSUNNY   57  57 100 NW9       29.82S FOG
$$

WAZ020-022-039-040-504-511-512-012200-
SOUTHWEST INTERIOR

CITY           SKY/WX    TMP DP  RH WIND       PRES   REMARKS
SHELTON        LGT RAIN  60  57  89 SW7       29.82F FOG
OLYMPIA        LGT RAIN  63  61  93 S10       29.84F FOG
CHEHALIS       MOSUNNY   64  63  94 SW5       29.86S FOG
KELSO          NOT AVBL
VANCOUVER      CLOUDY    75  52  44 MISG      29.85F
SCAPPOOSE, OR  CLOUDY    75  53  46 VRB7G22   29.84F
PORTLAND, OR   PTSUNNY   75  52  44 SW12G17   29.85F
$$

WAZ021-516-517-012200-
WASHINGTON COAST

CITY           SKY/WX    TMP DP  RH WIND       PRES   REMARKS
FORKS          CLOUDY    63  55  75 S8        29.82F
HOQUIAM        CLOUDY    64  58  80 SW7       29.85S
ASTORIA, OR    CLOUDY    64  59  83 S13G24    29.86F
$$

WAZ019-023-024-040-518-519-012200-
CASCADE MOUNTAINS AND COLUMBIA GORGE

CITY           SKY/WX    TMP DP  RH WIND       PRES   REMARKS
TROUTDALE, OR  MOSUNNY   76  50  40 SW10G17   29.85F
THE DALLES, OR PTSUNNY   79  47  32 W16G22    29.80F
$$

WAZ026-027-041>044-520-521-012200-
EAST SLOPES

CITY           SKY/WX    TMP DP  RH WIND       PRES   REMARKS
OMAK           CLOUDY    74  44  34 SW16      29.74F
WENATCHEE      CLOUDY    78  43  28 NW9       29.76F
ELLENSBURG     PTSUNNY   75  43  31 CALM      29.80F
YAKIMA         PTSUNNY   79  43  27 CALM      29.78F
$$

WAZ028-034-035-012200-
COLUMBIA BASIN

CITY           SKY/WX    TMP DP  RH WIND       PRES   REMARKS
EPHRATA        PTSUNNY   77  45  32 S12G21    29.77F
MOSES LAKE     PTSUNNY   76  45  33 S12       29.79F
PASCO          MOSUNNY   82  48  30 W9        29.78F
HERMISTON, OR  SUNNY     79  46  31 W10G16    29.78F
$$

WAZ036>038-012200-
NORTHEAST WASHINGTON

CITY           SKY/WX    TMP DP  RH WIND       PRES   REMARKS
SPOKANE GEIGER PTSUNNY   69  43  38 S5        29.84F
SPOKANE FELTS  MOSUNNY   73  43  33 SW15G21   29.84F
FAIRCHILD AFB  PTSUNNY   72  42  34 S8        29.84F
COEURDALENE,ID SUNNY     72  45  37 S15       29.84F
DEER PARK      CLOUDY    70  44  39 VRB6G17   29.84F HAZE
$$

WAZ029>033-012200-
SOUTHEAST WASHINGTON

CITY           SKY/WX    TMP DP  RH WIND       PRES   REMARKS
PULLMAN        SUNNY     74  41  30 VRB3      29.87F
LEWISTON, ID   SUNNY     79  38  22 CALM      29.80F
WALLA WALLA    SUNNY     78  43  28 S10       29.80F
PENDLETON, OR  SUNNY     77  43  29 W3        29.80F
$$


USA.gov is the U.S. government's official web portal to all federal, state and local government web resources and services.